Flag for Germany Weather past 2 weeks in Krefeld, North Rhine-Westphalia, Germany

Now
65 °F

Passing clouds.


Feels Like: 65 °F
Forecast: 60 / 76 °F
Wind: 3 mph from West

Location: Duesseldorf

Current Time: Jul 6, 2015 at 1:29:46 AM

Latest Report: Jul 6, 2015 at 1:00 AM


Visibility: 37 mi

Pressure: 30.08 "Hg

Humidity: 79%

Dew point: 58 °F

Location of KrefeldLocation

Historic Weather in Krefeld — Graph

°F

Krefeld temperature yesterday

Maximum temperature yesterday: 88 °F (at 3:00 PM)
Minimum temperature yesterday: 65 °F (at 11:00 PM)
Average temperature yesterday: 74 °F

Past Weeks' High & Low Weather Summary

 TemperatureHumidityPressure
High98 °F (Jul 2, 4:00 PM)98% (Jun 22, 10:00 PM)30.25 "Hg (Jun 22, 10:00 PM)
Low49 °F (Jun 23, 4:00 AM)26% (Jul 1, 6:00 PM)29.72 "Hg (Jun 22, 8:00 PM)
Average69 °F65%30.07 "Hg
* Reported Midnight between Jun 20 and Jun 21 — Midnight between Jul 5 and Jul 6, Krefeld, Weather by CustomWeather, © 2015

Note: Actual official high and low records may vary slightly from our data, if they occured in-between our weather recording intervals... More about our weather records

Advertising

Krefeld weather history for previous 24 hours

 ConditionsComfort  
Time TempWeatherWind HumidityBarometerVisibility
12:00 AM
Mon, Jul 6
65 °FPassing clouds.2 mph82%30.06 "Hg37 mi
11:00 PM
Sun, Jul 5
65 °FPassing clouds.3 mph86%30.06 "Hg31 mi
10:00 PM67 °FOvercast.3 mph81%30.02 "Hg25 mi
9:00 PM68 °FOvercast.1 mph78%30.01 "Hg19 mi
8:00 PM70 °FSprinkles. Overcast.5 mph66%29.99 "Hg16 mi
7:00 PM70 °FThunderstorms. Overcast.9 mph64%29.97 "Hg16 mi
6:00 PM73 °FPartly sunny.12 mph61%29.95 "Hg9 mi
4:00 PM86 °FThunderstorms. Partly sunny.3 mph56%29.88 "Hg12 mi
3:00 PM88 °FScattered clouds.2 mph50%29.90 "Hg12 mi
2:00 PM85 °FScattered clouds.3 mph59%29.93 "Hg12 mi
1:00 PM81 °FPartly sunny.5 mph65%29.97 "Hg12 mi
12:00 PM77 °FPartly sunny.2 mph75%29.98 "Hg9 mi
10:00 AM67 °FThundershowers. Overcast.6 mph95%30.06 "Hg7 mi
9:00 AM67 °FThundershowers. Overcast.5 mph90%30.07 "Hg12 mi
8:00 AM69 °FMild.2 mph82%30.06 "HgN/A
7:00 AM67 °FOvercast.3 mph86%30.08 "Hg12 mi
4:00 AM71 °FOvercast.3 mph70%30.11 "Hg22 mi
3:00 AM72 °FPassing clouds.3 mph68%30.12 "Hg25 mi
2:00 AM75 °FPassing clouds.3 mph57%30.11 "Hg22 mi
1:00 AM78 °FPassing clouds.2 mph54%30.11 "Hg22 mi
Weather by CustomWeather, © 2015

See weather overviewHow to use our weather pages